Regional Weather Roundup
Issued by NWS

Home | Current Version | Previous Version | Graphics & Text | Print | Product List | Glossary On
Versions: 1 2 3 4 5 6 7 8 9 10 11 12 13 14 15 16 17 18 19 20 21 22 23 24 25 26 27 28 29 30 31 32 33 34 35 36 37 38 39 40 41 42 43 44 45 46 47 48 49 50
000
ASUS43 KMPX 242301
RWRMN
WEATHER ROUNDUP FOR MINNESOTA
NATIONAL WEATHER SERVICE TWIN CITIES/CHANHASSEN MN
600 PM CDT TUE MAY 24 2016


NOTE: "FAIR" INDICATES FEW OR NO CLOUDS BELOW 12,000 FEET WITH NO
SIGNIFICANT WEATHER AND/OR OBSTRUCTIONS TO VISIBILITY. N/A MEANS
CURRENT SKY AND/OR WEATHER CONDITIONS ARE NOT AVAILABLE.

MNZ060>063-068>070-250000-
   Twin Cities Metro

CITY           SKY/WX    TMP DP  RH WIND       PRES   REMARKS
TWIN CITIES    CLOUDY    86  50  28 NW5       29.88S
ST PAUL        SUNNY     82  51  34 E9        29.88S
CRYSTAL        MOSUNNY   80  51  36 NE3       29.87F
EDEN PRAIRIE   CLOUDY    84  51  31 VRB3      29.87S
SOUTH ST PAUL  CLOUDY    83  49  29 NE3       29.88F
LAKE ELMO      FAIR      81  54  39 W3        29.90S HAZE
$$
MNZ001>005-007-008-013>017-022>024-027-028-250000-
   Northwest Minnesota

CITY           SKY/WX    TMP DP  RH WIND       PRES   REMARKS
BEMIDJI        SUNNY     79  47  32 NW14      29.88S
HALLOCK        MOSUNNY   77  45  31 W3        29.86S
ROSEAU         SUNNY     75  48  38 NW5       29.88S
WARROAD        SUNNY     70  55  60 E10       29.89S
THIEF RVR FALL SUNNY     75  45  33 W7        29.89F
CROOKSTON      SUNNY     79  48  34 N5        29.87F
FOSSTON        SUNNY     81  43  26 NW6       29.90R
DETROIT LAKES  SUNNY     79  45  29 W3        29.88S
MOORHEAD       SUNNY     82  45  26 N7        29.85R
PARK RAPIDS    SUNNY     80  46  30 W5        29.87S
MAHNOMEN       FAIR      77  49  37 NE10      29.88R
$$
MNZ006-009>011-018-025>026-250000-
   North Central Minnesota

CITY           SKY/WX    TMP DP  RH WIND       PRES   REMARKS
BAUDETTE       SUNNY     75  46  35 N10       29.88S
FLAG ISLAND    SUNNY     70  48  46 N7        29.89S
INTL FALLS     MOSUNNY   71  52  50 NE14      29.88R
WASKISH        SUNNY     75  52  43 MISG      29.88S
BIG FORK       MOSUNNY   79  43  27 W7        29.88S
LONGVILLE      SUNNY     77  52  41 CALM      29.89R
CRANE LAKE     PTSUNNY   75  48  38 NE5       29.87S
ORR            MOSUNNY   79  39  24 W6        29.85S
COOK           MOSUNNY   79  46  31 W10G16    29.88S
WALKER         FAIR      76  54  45 E3        29.88S
$$
MNZ012-019>021-037-250000-
   Northeast Minnesota

CITY           SKY/WX    TMP DP  RH WIND       PRES   REMARKS
DULUTH         MOSUNNY   66  57  72 E14       29.92R
ELY            CLOUDY    75  52  43 SE5       29.89S
HIBBING        SUNNY     77  45  32 W7        29.88S
EVELETH        SUNNY     77  45  31 W6        29.90R
DULUTH HARBOR  HVY RAIN  52  50  93 NE15      29.94R VSB 1/4
TWO HARBORS    SUNNY     66  61  82 E13       29.91R
SILVER BAY     CLOUDY    57  55  94 NE9       29.93S FOG
GRAND MARAIS     N/A     48  46  93 NE7       29.95R
G MARAIS ARPRT SUNNY     63  46  55 E10G18    29.98R
$$
MNZ029>031-032-039>041-046>048-054>057-064-250000-
   West Central Minnesota

CITY           SKY/WX    TMP DP  RH WIND       PRES   REMARKS
FERGUS FALLS   MOSUNNY   82  52  34 NE5       29.80R
WHEATON        SUNNY     88  45  22 W7        29.84R
MORRIS         MOSUNNY   84  46  26 CALM      29.83S
ALEXANDRIA     MOSUNNY   80  52  37 E8        29.87S
ELBOW LAKE     FAIR      84  43  23 SW10G17   29.84S
WADENA         MOSUNNY   81  46  30 CALM      29.85F
GLENWOOD       MOSUNNY   75  52  43 SE16      29.87S
APPLETON       SUNNY     88  34  14 W12       29.83S
BENSON         MOSUNNY   79  55  44 SE8       29.85R
ORTONVILLE     SUNNY     86  39  19 W10       29.84R
MADISON        SUNNY     84  36  17 SW7       29.84S
WILLMAR        FAIR      75  57  53 E12G18    29.88F
$$
MNZ033>034-036-042>043-049>051-058-059-250000-
   Central Minnesota

CITY           SKY/WX    TMP DP  RH WIND       PRES   REMARKS
ST CLOUD       CLOUDY    76  58  53 S8        29.88S
SAUK CENTRE    CLOUDY    73  53  50 N15G21    29.90R THUNDER
PAYNESVILLE    CLOUDY    75  47  37 SE8       29.88F
AITKIN         SUNNY     82  43  24 SW3       29.87S
PINE RIVER     CLOUDY    77  55  47 N6        29.91R
BRAINERD       MOSUNNY   78  49  35 SE5       29.88S
STAPLES        MOSUNNY   79  45  29 NE5       29.86S
LONG PRAIRIE   CLOUDY    77  54  44 SE5       29.87F
LITTLE FALLS   CLOUDY    77  50  38 SE5       29.88S
LITCHFIELD     DRIZZLE   77  61  57 CALM      29.91R
BUFFALO        CLOUDY    78  56  47 CALM      29.90S
MAPLE LAKE     CLOUDY    76  68  76 CALM      29.90S
HUTCHINSON     TSTM      73  64  73 NW8       29.91R
$$
MNZ037-044-045-052-053-250000-
   East Central Minnesota

CITY           SKY/WX    TMP DP  RH WIND       PRES   REMARKS
PRINCETON      CLOUDY    79  64  61 CALM      29.89S
MORA           CLOUDY    79  50  36 S6        29.90S
CAMBRIDGE        N/A     81  63  54 CALM      29.88S
RUSH CITY      CLOUDY    78  57  48 CALM      29.90R
MOOSE LAKE     SUNNY     79  52  38 CALM      29.87R
HINCKLEY       FAIR      81  55  41 S3        29.89S
CLOQUET        MOSUNNY   70  55  60 E9        29.90S
MCGREGOR       MOSUNNY   81  48  32 NW8       29.89R
$$
MNZ071>073-080-081-089-090-097-098-250000-
   Southwest Minnesota

CITY           SKY/WX    TMP DP  RH WIND       PRES   REMARKS
MONTEVIDEO     SUNNY     91  41  17 NW5       29.86S
GRANITE FALLS  MOSUNNY   90  40  17 NW5       29.85F
CANBY          MOSUNNY   86  52  31 NW7       29.86S
REDWOOD FALLS  SUNNY     85  51  31 S12       29.84F
OLIVIA         MOSUNNY   77  50  38 NE12      29.86F
PIPESTONE      SUNNY     84  37  18 CALM      29.88F
WINDOM         SUNNY     82  54  36 CALM      29.88F
JACKSON        SUNNY     82  50  32 S5        29.90F
TRACY          SUNNY     86  37  17 NW8       29.87S
SLAYTON        SUNNY     84  39  20 W5        29.89S
$$
MNZ065>067-074>077-082>085-091>093-250000-
   South Central Minnesota

CITY           SKY/WX    TMP DP  RH WIND       PRES   REMARKS
MANKATO        SUNNY     84  46  26 SW6       29.87F
NEW ULM        MOSUNNY   82  54  36 SW9       29.86S
ST JAMES       SUNNY     79  46  31 SW5       29.88S
FAIRMONT       SUNNY     82  52  34 CALM      29.88F
GLENCOE        CLOUDY    79  63  57 E7        29.86F
FARIBAULT      PTSUNNY   82  48  30 W2        29.89S
OWATONNA         N/A     82  54  36 SE14      29.89F
WASECA         MOSUNNY   82  54  36 S10       29.90S
ALBERT LEA     SUNNY     81  57  44 SE9       29.90F
$$
MNZ078>079-086>088-094>096-250000-
   Southeast Minnesota

CITY           SKY/WX    TMP DP  RH WIND       PRES   REMARKS
ROCHESTER      SUNNY     80  59  48 SW5       29.92F
RED WING       LGT RAIN  81  59  47 S5        29.88S
STANTON        CLOUDY    85  50  29 N3        29.88S
DODGE CENTER   SUNNY     82  52  34 S12       29.91F
WINONA         SUNNY     81  54  39 CALM      29.90F
AUSTIN         SUNNY     79  59  50 S5        29.91F
PRESTON        SUNNY     79  54  41 S5        29.93F
$$
ABBREVIATIONS USED IN REMARKS
   TC - TEMPERATURES IN CELSIUS
  WCI - WIND CHILL INDEX
   HX - HEAT INDEX
  VSB - VISIBILITY
$$




USA.gov is the U.S. government's official web portal to all federal, state and local government web resources and services.